STARLINK-1922, 46753

Orbit data source: Space-Track

STARLINK-1922, 46753 is a payload satellite owned by SpaceX/Seattle (US) in LEO that was launched on Sat, 24 Oct 2020 UTC via an FALCON 9 launch vehicle from the Air Force Eastern Test Range (AFETR). Payload-class satellites include a variety of spacecraft equipped with specific instruments for various scientific and technological missions. These include communications satellites like Starlink; space stations such as the ISS; scientific satellites like the Hubble; Earth observation satellites from companies like Planet Labs, Umbra, and HawkEye 360; GPS; miniature CubeSats for education and research; and military/defense satellites.

Not visible in the next 10 days
Identifier
46753, 2020-074Q
Orbit
LEO
Country
Flag of USUS
Related business
Manufacturer
SpaceX/Seattle
Mission
Partially operational Commercial Communications
Bus & Motor
STARLINK, Unknown motor
Mass
260 kg wet, ~248 kg dry
Launch date (UTC)
2020-10-24 (6 years ago)
Launch vehicle
FALCON 9
Launch site
Air Force Eastern Test Range (AFETR)
Object type
Payload
Rocket body
Debris
Shape & HBR
Box + 1 Pan, 10.1 m
Radar Cross Section
13.562 m², Large (>1 m²)

Expand to show TLE details & history
Last TLE update: 2 days ago

TLE from 2 days ago
0 STARLINK-1922
1 46753U 20074Q   26171.41649678  .01233182  91382-3  15602-2 0  9992
2 46753  53.0307 129.5710 0001125 126.2734 233.8402 16.07064926313431
Epoch: 2026-06-20T09:59Z
TLE epoch observation values (Epoch: 2026-06-20T09:59:45.321Z)
Latitude
-0.00006°
Longitude
71.00069°
Altitude
256.263 km
Speed
7.754 km/s
True Right ascension
08h 38m 17s
True Declination
0° 00' 00"
Sunlit
Object was in daylight at epoch
Visualization orbit readout
Latitude
Unknown
Longitude
Unknown
Altitude
Unknown
Speed
Unknown
Apparent Right ascension
Unknown
Apparent Declination
Unknown
Sunlit
N/A
Visualization observer readout
Local Sidereal Time
21:37:37
Azimuth
Unknown
Elevation
Unknown
Doppler factor
Unknown
Orbital elements
Apogee altitude
255.94 km
Perigee altitude
254.447 km
Semi-major axis
6,633.33 km
Eccentricity
0.00011
Inclination
53.0307°
RAAN
129.571°
Arg. of periapsis
126.2734°
True anomaly
233.82979°
Mean anomaly
233.8402°
Eccentric anomaly
233.835°
Mean motion
4.01741 °/min
Orbital period
89.61 mins
BSTAR
0.0015602
Loading maneuver chart data...
Computing Atmospheric mass density...

Documentation

Showing up to 5 results
|